Time,TemperatureF,DewpointF,PressureIn,WindDirection,WindDirectionDegrees,WindSpeedMPH,WindSpeedGustMPH,Humidity,HourlyPrecipIn,Conditions,Clouds,dailyrainin,SolarRadiationWatts/m^2,SoftwareType,DateUTC
2013-04-03 00:04:00,45.0,39.6,30.15,ENE,69,3.0,5.0,81,0.00,,,0.00,0.0,meteohub,2013-04-03 10:04:00,
2013-04-03 00:09:00,45.9,40.1,30.14,East,89,2.0,7.0,80,0.00,,,0.00,0.0,meteohub,2013-04-03 10:09:00,
2013-04-03 00:10:00,45.9,39.7,30.14,ENE,77,3.0,7.0,79,0.00,,,0.00,0.0,meteohub,2013-04-03 10:10:00,
2013-04-03 00:17:00,45.9,39.7,30.14,East,93,3.0,7.0,79,0.00,,,0.00,0.0,meteohub,2013-04-03 10:17:00,
2013-04-03 00:25:00,44.8,39.4,30.14,East,88,1.0,6.0,81,0.00,,,0.00,0.0,meteohub,2013-04-03 10:25:00,
2013-04-03 00:30:00,44.6,39.4,30.14,East,85,1.0,5.0,82,0.00,,,0.00,0.0,meteohub,2013-04-03 10:30:00,
2013-04-03 00:31:00,44.6,39.4,30.14,ESE,117,2.0,5.0,82,0.00,,,0.00,0.0,meteohub,2013-04-03 10:31:00,
2013-04-03 00:42:00,45.3,39.2,30.14,ENE,74,4.0,6.0,79,0.00,,,0.00,0.0,meteohub,2013-04-03 10:42:00,
2013-04-03 00:47:00,45.7,39.2,30.14,East,96,5.0,6.0,78,0.00,,,0.00,0.0,meteohub,2013-04-03 10:47:00,
2013-04-03 00:52:00,45.9,39.0,30.14,ENE,76,4.0,6.0,77,0.00,,,0.00,0.0,meteohub,2013-04-03 10:52:00,
2013-04-03 00:54:00,45.9,39.4,30.13,ESE,107,3.0,6.0,78,0.00,,,0.00,0.0,meteohub,2013-04-03 10:54:00,
2013-04-03 00:57:00,45.7,39.6,30.13,ESE,117,4.0,6.0,79,0.00,,,0.00,0.0,meteohub,2013-04-03 10:57:00,
2013-04-03 01:02:00,45.5,39.4,30.13,ENE,76,2.0,6.0,79,0.00,,,0.00,0.0,meteohub,2013-04-03 11:02:00,
2013-04-03 01:07:00,45.3,39.6,30.14,ENE,73,3.0,7.0,80,0.00,,,0.00,0.0,meteohub,2013-04-03 11:07:00,
2013-04-03 01:12:00,45.1,39.7,30.14,East,92,3.0,7.0,81,0.00,,,0.00,0.0,meteohub,2013-04-03 11:12:00,
2013-04-03 01:14:00,45.0,39.7,30.14,ENE,73,2.0,7.0,82,0.00,,,0.00,0.0,meteohub,2013-04-03 11:14:00,
2013-04-03 01:22:00,44.8,39.6,30.13,East,94,2.0,5.0,82,0.00,,,0.00,0.0,meteohub,2013-04-03 11:22:00,
2013-04-03 01:30:00,44.6,39.7,30.13,East,85,2.0,6.0,83,0.00,,,0.00,0.0,meteohub,2013-04-03 11:30:00,
2013-04-03 01:35:00,44.4,39.9,30.13,East,101,5.0,5.0,84,0.00,,,0.00,0.0,meteohub,2013-04-03 11:35:00,
2013-04-03 01:37:00,44.8,40.3,30.13,East,101,2.0,5.0,84,0.00,,,0.00,0.0,meteohub,2013-04-03 11:37:00,
2013-04-03 01:47:00,44.4,39.6,30.13,ENE,78,3.0,7.0,83,0.00,,,0.00,0.0,meteohub,2013-04-03 11:47:00,
2013-04-03 01:52:00,44.8,39.6,30.13,East,84,2.0,7.0,82,0.00,,,0.00,0.0,meteohub,2013-04-03 11:52:00,
2013-04-03 01:58:00,44.8,39.6,30.13,ENE,78,4.0,6.0,82,0.00,,,0.00,0.0,meteohub,2013-04-03 11:58:00,
2013-04-03 01:59:00,44.8,39.9,30.13,ENE,71,4.0,6.0,83,0.00,,,0.00,0.0,meteohub,2013-04-03 11:59:00,
2013-04-03 02:07:00,45.0,39.7,30.12,East,83,2.0,6.0,82,0.00,,,0.00,0.0,meteohub,2013-04-03 12:07:00,
2013-04-03 02:12:00,45.0,39.2,30.12,East,79,3.0,6.0,80,0.00,,,0.00,0.0,meteohub,2013-04-03 12:12:00,
2013-04-03 02:17:00,45.1,39.0,30.12,ENE,75,3.0,6.0,79,0.00,,,0.00,0.0,meteohub,2013-04-03 12:17:00,
2013-04-03 02:22:00,45.0,39.6,30.12,East,80,2.0,7.0,81,0.00,,,0.00,0.0,meteohub,2013-04-03 12:22:00,
2013-04-03 02:23:00,45.0,39.6,30.12,ESE,110,4.0,7.0,81,0.00,,,0.00,0.0,meteohub,2013-04-03 12:23:00,
2013-04-03 02:27:00,44.8,39.4,30.12,East,96,3.0,7.0,81,0.00,,,0.00,0.0,meteohub,2013-04-03 12:27:00,
2013-04-03 02:37:00,44.6,38.8,30.12,East,94,3.0,7.0,80,0.00,,,0.00,0.0,meteohub,2013-04-03 12:37:00,
2013-04-03 02:42:00,45.0,39.2,30.12,East,95,6.0,7.0,80,0.00,,,0.00,0.0,meteohub,2013-04-03 12:42:00,
2013-04-03 02:43:00,45.1,39.4,30.12,ESE,113,4.0,7.0,80,0.00,,,0.00,0.0,meteohub,2013-04-03 12:43:00,
2013-04-03 02:57:00,45.7,39.9,30.12,ESE,117,3.0,7.0,80,0.00,,,0.00,0.0,meteohub,2013-04-03 12:57:00,
2013-04-03 03:02:00,45.7,40.1,30.12,ESE,108,1.0,6.0,81,0.00,,,0.00,0.0,meteohub,2013-04-03 13:02:00,
2013-04-03 03:04:00,45.5,40.3,30.11,ENE,78,3.0,6.0,82,0.00,,,0.00,0.0,meteohub,2013-04-03 13:04:00,
2013-04-03 03:07:00,45.0,39.7,30.11,East,88,2.0,7.0,82,0.00,,,0.00,0.0,meteohub,2013-04-03 13:07:00,
2013-04-03 03:17:00,43.9,39.7,30.12,East,84,5.0,6.0,85,0.00,,,0.00,0.0,meteohub,2013-04-03 13:17:00,
2013-04-03 03:22:00,44.2,40.3,30.12,East,99,6.0,6.0,86,0.00,,,0.00,0.0,meteohub,2013-04-03 13:22:00,
2013-04-03 03:27:00,44.4,40.3,30.12,East,85,3.0,6.0,85,0.00,,,0.00,0.0,meteohub,2013-04-03 13:27:00,
2013-04-03 03:29:00,44.4,40.3,30.12,ESE,103,2.0,6.0,85,0.00,,,0.00,0.0,meteohub,2013-04-03 13:29:00,
2013-04-03 03:32:00,44.4,40.3,30.12,East,83,3.0,6.0,85,0.00,,,0.00,0.0,meteohub,2013-04-03 13:32:00,
2013-04-03 03:37:00,44.4,39.9,30.12,ENE,71,4.0,6.0,84,0.00,,,0.00,0.0,meteohub,2013-04-03 13:37:00,
2013-04-03 03:42:00,44.8,40.3,30.12,East,94,2.0,5.0,84,0.00,,,0.00,0.0,meteohub,2013-04-03 13:42:00,
2013-04-03 03:47:00,45.0,40.5,30.12,East,81,3.0,6.0,84,0.00,,,0.00,0.0,meteohub,2013-04-03 13:47:00,
2013-04-03 03:49:00,45.0,40.5,30.12,East,91,2.0,6.0,84,0.00,,,0.00,0.0,meteohub,2013-04-03 13:49:00,
2013-04-03 03:52:00,44.8,40.3,30.12,ENE,67,4.0,6.0,84,0.00,,,0.00,0.0,meteohub,2013-04-03 13:52:00,
2013-04-03 03:57:00,45.0,40.1,30.12,ENE,76,3.0,6.0,83,0.00,,,0.00,0.0,meteohub,2013-04-03 13:57:00,
2013-04-03 04:02:00,45.1,39.9,30.12,East,80,5.0,7.0,82,0.00,,,0.00,0.0,meteohub,2013-04-03 14:02:00,
2013-04-03 04:07:00,45.1,39.7,30.12,ESE,107,3.0,7.0,81,0.00,,,0.00,0.0,meteohub,2013-04-03 14:07:00,
2013-04-03 04:10:00,45.3,39.9,30.12,ENE,76,4.0,7.0,81,0.00,,,0.00,0.0,meteohub,2013-04-03 14:10:00,
2013-04-03 04:12:00,45.3,39.9,30.12,East,88,2.0,7.0,81,0.00,,,0.00,0.0,meteohub,2013-04-03 14:12:00,
2013-04-03 04:22:00,44.2,39.4,30.12,ENE,74,4.0,6.0,83,0.00,,,0.00,0.0,meteohub,2013-04-03 14:22:00,
2013-04-03 04:27:00,44.2,39.7,30.12,ENE,73,3.0,6.0,84,0.00,,,0.00,0.0,meteohub,2013-04-03 14:27:00,
2013-04-03 04:31:00,44.2,39.7,30.11,ENE,67,3.0,6.0,84,0.00,,,0.00,0.0,meteohub,2013-04-03 14:31:00,
2013-04-03 04:37:00,44.6,40.1,30.11,East,95,6.0,7.0,84,0.00,,,0.00,0.0,meteohub,2013-04-03 14:37:00,
2013-04-03 04:42:00,45.0,40.5,30.11,ESE,106,4.0,7.0,84,0.00,,,0.00,0.0,meteohub,2013-04-03 14:42:00,
2013-04-03 04:47:00,44.8,40.3,30.11,ESE,107,1.0,7.0,84,0.00,,,0.00,0.0,meteohub,2013-04-03 14:47:00,
2013-04-03 04:52:00,44.2,40.3,30.11,ENE,76,4.0,7.0,86,0.00,,,0.00,0.0,meteohub,2013-04-03 14:52:00,
2013-04-03 04:57:00,44.4,40.5,30.11,East,84,7.0,7.0,86,0.00,,,0.00,0.0,meteohub,2013-04-03 14:57:00,
2013-04-03 05:07:00,45.0,40.6,30.11,ESE,123,3.0,7.0,85,0.00,,,0.00,0.0,meteohub,2013-04-03 15:07:00,
2013-04-03 05:12:00,45.1,41.2,30.11,East,93,2.0,7.0,86,0.00,,,0.00,0.0,meteohub,2013-04-03 15:12:00,
2013-04-03 05:13:00,45.1,41.2,30.12,ESE,117,2.0,7.0,86,0.00,,,0.00,0.0,meteohub,2013-04-03 15:13:00,
2013-04-03 05:22:00,45.1,41.2,30.12,ESE,107,2.0,6.0,86,0.00,,,0.00,0.0,meteohub,2013-04-03 15:22:00,
2013-04-03 05:27:00,45.0,41.4,30.12,ENE,74,3.0,6.0,87,0.00,,,0.00,0.0,meteohub,2013-04-03 15:27:00,
2013-04-03 05:32:00,44.6,41.0,30.12,East,101,3.0,6.0,87,0.00,,,0.00,0.0,meteohub,2013-04-03 15:32:00,
2013-04-03 05:37:00,44.4,41.2,30.12,East,96,3.0,6.0,88,0.00,,,0.00,0.0,meteohub,2013-04-03 15:37:00,
2013-04-03 05:38:00,44.4,41.2,30.12,ENE,68,3.0,6.0,88,0.00,,,0.00,0.0,meteohub,2013-04-03 15:38:00,
2013-04-03 05:42:00,44.6,41.2,30.12,ENE,69,3.0,6.0,88,0.00,,,0.00,0.0,meteohub,2013-04-03 15:42:00,
2013-04-03 05:52:00,45.0,41.0,30.12,ESE,102,2.0,6.0,86,0.00,,,0.00,0.0,meteohub,2013-04-03 15:52:00,
2013-04-03 05:57:00,44.8,40.8,30.13,East,99,3.0,6.0,86,0.00,,,0.00,0.0,meteohub,2013-04-03 15:57:00,
2013-04-03 06:01:00,44.6,41.0,30.12,East,88,2.0,6.0,87,0.00,,,0.00,0.0,meteohub,2013-04-03 16:01:00,
2013-04-03 06:02:00,44.6,41.0,30.12,East,93,5.0,6.0,87,0.00,,,0.00,0.0,meteohub,2013-04-03 16:02:00,
2013-04-03 06:07:00,44.8,41.2,30.12,ESE,107,4.0,5.0,87,0.00,,,0.00,0.0,meteohub,2013-04-03 16:07:00,
2013-04-03 06:17:00,45.1,41.2,30.13,East,91,3.0,6.0,86,0.00,,,0.00,0.0,meteohub,2013-04-03 16:17:00,
2013-04-03 06:22:00,45.3,41.4,30.13,ENE,66,5.0,6.0,86,0.00,,,0.00,5.0,meteohub,2013-04-03 16:22:00,
2013-04-03 07:38:00,47.1,42.8,30.15,East,90,5.0,6.0,85,0.00,,,0.00,28.0,meteohub,2013-04-03 17:38:00,
2013-04-03 07:43:00,47.5,43.2,30.16,East,82,2.0,5.0,85,0.00,,,0.00,30.0,meteohub,2013-04-03 17:43:00,
2013-04-03 07:48:00,48.0,43.7,30.16,East,90,3.0,5.0,85,0.00,,,0.00,32.0,meteohub,2013-04-03 17:48:00,
2013-04-03 07:53:00,49.1,44.2,30.16,East,85,2.0,6.0,83,0.00,,,0.00,33.0,meteohub,2013-04-03 17:53:00,
2013-04-03 07:58:00,49.6,44.4,30.16,ENE,78,3.0,6.0,82,0.00,,,0.00,33.0,meteohub,2013-04-03 17:58:00,
2013-04-03 08:03:00,50.2,45.0,30.16,East,89,2.0,6.0,82,0.00,,,0.00,35.0,meteohub,2013-04-03 18:03:00,
2013-04-03 08:08:00,51.4,46.4,30.16,ESE,107,1.0,5.0,83,0.00,,,0.00,35.0,meteohub,2013-04-03 18:08:00,
2013-04-03 08:13:00,52.5,46.6,30.16,East,94,0.0,5.0,80,0.00,,,0.00,35.0,meteohub,2013-04-03 18:13:00,
2013-04-03 08:18:00,52.3,46.8,30.17,East,94,0.0,5.0,81,0.00,,,0.00,37.0,meteohub,2013-04-03 18:18:00,
2013-04-03 08:23:00,52.5,47.1,30.17,East,94,1.0,3.0,82,0.00,,,0.00,37.0,meteohub,2013-04-03 18:23:00,
2013-04-03 08:28:00,53.2,47.5,30.17,East,92,0.0,2.0,81,0.00,,,0.00,39.0,meteohub,2013-04-03 18:28:00,
2013-04-03 08:33:00,54.3,48.2,30.17,East,94,0.0,2.0,80,0.00,,,0.00,39.0,meteohub,2013-04-03 18:33:00,
2013-04-03 08:38:00,55.6,49.1,30.17,East,93,0.0,2.0,79,0.00,,,0.00,40.0,meteohub,2013-04-03 18:38:00,
2013-04-03 08:43:00,56.8,48.6,30.17,South,175,0.0,1.0,74,0.00,,,0.00,40.0,meteohub,2013-04-03 18:43:00,
2013-04-03 08:48:00,58.3,51.1,30.17,WSW,237,1.0,3.0,77,0.00,,,0.00,42.0,meteohub,2013-04-03 18:48:00,
2013-04-03 08:53:00,58.6,51.1,30.18,WSW,238,2.0,4.0,76,0.00,,,0.00,42.0,meteohub,2013-04-03 18:53:00,
2013-04-03 08:59:00,58.8,50.2,30.18,WSW,239,0.0,4.0,73,0.00,,,0.00,42.0,meteohub,2013-04-03 18:59:00,
2013-04-03 09:04:00,59.4,51.4,30.17,West,259,3.0,4.0,75,0.00,,,0.00,44.0,meteohub,2013-04-03 19:04:00,
2013-04-03 09:09:00,59.5,51.3,30.17,WSW,238,3.0,4.0,74,0.00,,,0.00,46.0,meteohub,2013-04-03 19:09:00,
2013-04-03 09:14:00,59.7,51.4,30.17,SW,221,0.0,5.0,74,0.00,,,0.00,49.0,meteohub,2013-04-03 19:14:00,
2013-04-03 09:20:00,60.1,51.8,30.17,West,263,1.0,5.0,74,0.00,,,0.00,72.0,meteohub,2013-04-03 19:20:00,
2013-04-03 09:25:00,60.3,51.3,30.17,SW,236,0.0,5.0,72,0.00,,,0.00,127.0,meteohub,2013-04-03 19:25:00,
2013-04-03 09:30:00,60.6,51.1,30.17,West,279,2.0,5.0,71,0.00,,,0.00,197.0,meteohub,2013-04-03 19:30:00,
2013-04-03 09:35:00,61.0,51.1,30.17,WSW,239,3.0,5.0,70,0.00,,,0.00,311.0,meteohub,2013-04-03 19:35:00,
2013-04-03 09:40:00,61.0,52.0,30.17,South,182,2.0,3.0,72,0.00,,,0.00,441.0,meteohub,2013-04-03 19:40:00,
2013-04-03 09:45:00,60.6,52.0,30.17,WSW,256,0.0,5.0,73,0.00,,,0.00,568.0,meteohub,2013-04-03 19:45:00,
2013-04-03 09:50:00,60.6,52.3,30.17,WNW,284,1.0,5.0,74,0.00,,,0.00,650.0,meteohub,2013-04-03 19:50:00,
2013-04-03 09:55:00,61.0,52.0,30.17,WSW,258,1.0,5.0,72,0.00,,,0.00,712.0,meteohub,2013-04-03 19:55:00,
2013-04-03 10:00:00,61.3,52.2,30.17,WNW,295,0.0,5.0,72,0.00,,,0.00,726.0,meteohub,2013-04-03 20:00:00,
2013-04-03 10:05:00,61.3,52.2,30.17,WNW,290,0.0,5.0,72,0.00,,,0.00,181.0,meteohub,2013-04-03 20:05:00,
2013-04-03 10:10:00,61.5,52.3,30.17,WNW,290,0.0,5.0,72,0.00,,,0.00,156.0,meteohub,2013-04-03 20:10:00,
2013-04-03 10:15:00,62.1,53.2,30.16,West,261,0.0,5.0,73,0.00,,,0.00,842.0,meteohub,2013-04-03 20:15:00,
2013-04-03 10:20:00,62.4,52.9,30.17,NW,315,0.0,5.0,71,0.00,,,0.00,357.0,meteohub,2013-04-03 20:20:00,
2013-04-03 10:25:00,62.6,53.1,30.17,NW,314,2.0,6.0,71,0.00,,,0.00,237.0,meteohub,2013-04-03 20:25:00,
2013-04-03 10:30:00,62.2,52.7,30.16,WSW,248,2.0,6.0,71,0.00,,,0.00,325.0,meteohub,2013-04-03 20:30:00,
2013-04-03 10:35:00,62.1,52.9,30.16,NW,315,3.0,6.0,72,0.00,,,0.00,573.0,meteohub,2013-04-03 20:35:00,
2013-04-03 10:40:00,62.4,52.5,30.16,NW,320,0.0,6.0,70,0.00,,,0.00,415.0,meteohub,2013-04-03 20:40:00,
2013-04-03 10:45:00,62.8,52.9,30.16,WSW,242,3.0,6.0,70,0.00,,,0.00,381.0,meteohub,2013-04-03 20:45:00,
2013-04-03 10:50:00,62.4,53.6,30.16,SSW,202,0.0,5.0,73,0.00,,,0.00,403.0,meteohub,2013-04-03 20:50:00,
2013-04-03 10:56:00,62.1,53.6,30.16,SSW,204,2.0,7.0,74,0.00,,,0.00,374.0,meteohub,2013-04-03 20:56:00,
2013-04-03 11:01:00,61.9,53.4,30.16,WNW,285,4.0,7.0,74,0.00,,,0.00,445.0,meteohub,2013-04-03 21:01:00,
2013-04-03 11:06:00,61.9,53.1,30.16,WSW,254,2.0,9.0,73,0.00,,,0.00,369.0,meteohub,2013-04-03 21:06:00,
2013-04-03 11:11:00,62.1,54.0,30.16,SSW,213,1.0,9.0,75,0.00,,,0.00,373.0,meteohub,2013-04-03 21:11:00,
2013-04-03 11:16:00,61.9,53.8,30.16,WSW,254,4.0,9.0,75,0.00,,,0.00,359.0,meteohub,2013-04-03 21:16:00,
2013-04-03 11:21:00,61.9,53.4,30.16,SW,232,5.0,6.0,74,0.00,,,0.00,353.0,meteohub,2013-04-03 21:21:00,
2013-04-03 11:26:00,61.5,54.3,30.16,WSW,249,4.0,8.0,77,0.00,,,0.00,290.0,meteohub,2013-04-03 21:26:00,
2013-04-03 11:32:00,61.3,54.5,30.15,SSE,147,1.0,8.0,78,0.00,,,0.00,207.0,meteohub,2013-04-03 21:32:00,
2013-04-03 11:37:00,61.0,54.7,30.15,SSW,205,1.0,8.0,80,0.00,,,0.00,174.0,meteohub,2013-04-03 21:37:00,
2013-04-03 11:42:00,60.8,54.0,30.15,NW,308,2.0,7.0,78,0.00,,,0.00,169.0,meteohub,2013-04-03 21:42:00,
2013-04-03 11:47:00,60.8,54.9,30.15,West,265,0.0,5.0,81,0.00,,,0.00,163.0,meteohub,2013-04-03 21:47:00,
2013-04-03 11:52:00,60.6,55.0,30.15,WSW,244,1.0,6.0,82,0.00,,,0.00,241.0,meteohub,2013-04-03 21:52:00,
2013-04-03 11:57:00,60.4,54.9,30.15,West,265,0.0,6.0,82,0.00,,,0.00,162.0,meteohub,2013-04-03 21:57:00,
2013-04-03 12:02:00,60.4,55.2,30.14,WSW,246,0.0,6.0,83,0.00,,,0.00,130.0,meteohub,2013-04-03 22:02:00,
2013-04-03 12:07:00,60.4,55.2,30.15,SSW,209,6.0,6.0,83,0.00,,,0.00,130.0,meteohub,2013-04-03 22:07:00,
2013-04-03 12:12:00,60.1,55.2,30.14,SW,217,0.0,6.0,84,0.00,,,0.00,199.0,meteohub,2013-04-03 22:12:00,
2013-04-03 12:17:00,60.1,54.9,30.14,WSW,244,1.0,6.0,83,0.00,,,0.00,271.0,meteohub,2013-04-03 22:17:00,
2013-04-03 12:22:00,60.3,55.0,30.14,SW,232,0.0,6.0,83,0.00,,,0.00,185.0,meteohub,2013-04-03 22:22:00,
2013-04-03 12:27:00,60.1,55.2,30.14,SSW,208,2.0,6.0,84,0.00,,,0.00,221.0,meteohub,2013-04-03 22:27:00,
2013-04-03 12:32:00,60.1,55.6,30.14,WSW,254,2.0,7.0,85,0.00,,,0.00,279.0,meteohub,2013-04-03 22:32:00,
2013-04-03 12:37:00,60.3,55.8,30.14,SW,232,0.0,7.0,85,0.00,,,0.00,431.0,meteohub,2013-04-03 22:37:00,
2013-04-03 12:42:00,60.4,55.6,30.13,SW,223,5.0,5.0,84,0.00,,,0.00,367.0,meteohub,2013-04-03 22:42:00,
2013-04-03 12:47:00,60.8,55.9,30.14,SSW,196,4.0,7.0,84,0.00,,,0.00,306.0,meteohub,2013-04-03 22:47:00,
2013-04-03 12:52:00,61.0,55.8,30.13,WSW,238,5.0,8.0,83,0.00,,,0.00,274.0,meteohub,2013-04-03 22:52:00,
2013-04-03 12:57:00,60.4,55.6,30.13,West,277,1.0,8.0,84,0.00,,,0.00,156.0,meteohub,2013-04-03 22:57:00,
2013-04-03 13:02:00,60.3,55.8,30.13,WSW,249,2.0,8.0,85,0.00,,,0.00,153.0,meteohub,2013-04-03 23:02:00,
2013-04-03 13:07:00,60.1,55.6,30.13,WNW,282,0.0,9.0,85,0.00,,,0.00,116.0,meteohub,2013-04-03 23:07:00,
2013-04-03 13:12:00,59.9,55.4,30.13,SW,236,2.0,9.0,85,0.00,,,0.00,109.0,meteohub,2013-04-03 23:12:00,
2013-04-03 13:17:00,59.7,55.8,30.12,SW,217,0.0,6.0,87,0.00,,,0.00,120.0,meteohub,2013-04-03 23:17:00,
2013-04-03 13:22:00,59.5,55.6,30.12,WSW,244,0.0,5.0,87,0.00,,,0.00,267.0,meteohub,2013-04-03 23:22:00,
2013-04-03 13:27:00,59.5,55.6,30.12,SW,218,2.0,5.0,87,0.00,,,0.00,200.0,meteohub,2013-04-03 23:27:00,
2013-04-03 13:32:00,59.5,55.4,30.12,WSW,256,0.0,5.0,86,0.00,,,0.00,188.0,meteohub,2013-04-03 23:32:00,
2013-04-03 13:37:00,59.7,55.2,30.12,SE,132,1.0,5.0,85,0.00,,,0.00,149.0,meteohub,2013-04-03 23:37:00,
2013-04-03 13:42:00,59.5,55.4,30.12,WSW,255,1.0,5.0,86,0.00,,,0.00,156.0,meteohub,2013-04-03 23:42:00,
2013-04-03 13:47:00,59.5,55.4,30.12,WSW,252,0.0,6.0,86,0.00,,,0.00,202.0,meteohub,2013-04-03 23:47:00,
2013-04-03 13:52:00,59.5,55.6,30.12,WSW,251,1.0,6.0,87,0.00,,,0.00,360.0,meteohub,2013-04-03 23:52:00,
2013-04-03 13:57:00,59.9,55.9,30.11,WNW,285,0.0,4.0,87,0.00,,,0.00,299.0,meteohub,2013-04-03 23:57:00,
2013-04-03 14:03:00,60.1,55.9,30.11,SW,219,0.0,3.0,86,0.00,,,0.00,199.0,meteohub,2013-04-04 00:03:00,
2013-04-03 14:08:00,60.3,55.8,30.11,SW,216,2.0,6.0,85,0.00,,,0.00,125.0,meteohub,2013-04-04 00:08:00,
2013-04-03 14:13:00,60.3,55.8,30.11,WSW,253,0.0,6.0,85,0.00,,,0.00,130.0,meteohub,2013-04-04 00:13:00,
2013-04-03 14:18:00,60.3,55.8,30.10,WSW,253,1.0,5.0,85,0.00,,,0.00,165.0,meteohub,2013-04-04 00:18:00,
2013-04-03 14:23:00,60.3,55.8,30.10,WSW,253,0.0,3.0,85,0.00,,,0.00,165.0,meteohub,2013-04-04 00:23:00,
2013-04-03 14:28:00,60.3,55.4,30.10,WSW,249,0.0,2.0,84,0.00,,,0.00,149.0,meteohub,2013-04-04 00:28:00,
2013-04-03 14:33:00,60.1,55.6,30.10,WSW,249,1.0,4.0,85,0.00,,,0.00,139.0,meteohub,2013-04-04 00:33:00,
2013-04-03 14:38:00,60.1,55.9,30.10,SW,222,0.0,4.0,86,0.00,,,0.00,229.0,meteohub,2013-04-04 00:38:00,
2013-04-03 14:43:00,60.3,55.8,30.10,West,262,0.0,4.0,85,0.00,,,0.00,313.0,meteohub,2013-04-04 00:43:00,
2013-04-03 14:48:00,61.2,55.9,30.09,WSW,238,0.0,7.0,83,0.00,,,0.00,1220.0,meteohub,2013-04-04 00:48:00,
2013-04-03 14:53:00,61.9,56.3,30.10,SW,222,0.0,7.0,82,0.00,,,0.00,332.0,meteohub,2013-04-04 00:53:00,
2013-04-03 14:58:00,62.1,56.1,30.09,SW,231,2.0,7.0,81,0.00,,,0.00,257.0,meteohub,2013-04-04 00:58:00,
2013-04-03 15:03:00,61.9,55.9,30.09,WSW,251,1.0,6.0,81,0.00,,,0.00,172.0,meteohub,2013-04-04 01:03:00,
2013-04-03 15:08:00,61.9,55.9,30.09,SW,232,0.0,6.0,81,0.00,,,0.00,172.0,meteohub,2013-04-04 01:08:00,
2013-04-03 15:13:00,61.5,55.6,30.09,SW,215,1.0,5.0,81,0.00,,,0.00,148.0,meteohub,2013-04-04 01:13:00,
2013-04-03 15:18:00,61.2,55.9,30.09,SW,229,1.0,5.0,83,0.00,,,0.00,137.0,meteohub,2013-04-04 01:18:00,
2013-04-03 15:23:00,61.2,55.9,30.09,SW,236,2.0,5.0,83,0.00,,,0.00,144.0,meteohub,2013-04-04 01:23:00,
2013-04-03 15:28:00,61.0,55.8,30.09,SW,231,0.0,5.0,83,0.00,,,0.00,128.0,meteohub,2013-04-04 01:28:00,
2013-04-03 15:33:00,60.8,55.9,30.09,SW,236,1.0,5.0,84,0.00,,,0.00,83.0,meteohub,2013-04-04 01:33:00,
2013-04-03 15:38:00,60.4,55.6,30.09,WSW,257,0.0,5.0,84,0.00,,,0.00,69.0,meteohub,2013-04-04 01:38:00,
2013-04-03 15:43:00,60.3,55.8,30.09,WNW,302,0.0,5.0,85,0.00,,,0.00,81.0,meteohub,2013-04-04 01:43:00,
2013-04-03 15:48:00,60.1,55.6,30.09,WSW,239,1.0,5.0,85,0.00,,,0.00,93.0,meteohub,2013-04-04 01:48:00,
2013-04-03 15:53:00,60.1,55.9,30.09,WSW,240,0.0,3.0,86,0.00,,,0.00,97.0,meteohub,2013-04-04 01:53:00,
2013-04-03 15:58:00,59.7,55.8,30.09,WSW,241,3.0,4.0,87,0.00,,,0.00,69.0,meteohub,2013-04-04 01:58:00,
2013-04-03 16:03:00,59.5,55.4,30.09,WSW,239,0.0,4.0,86,0.00,,,0.00,65.0,meteohub,2013-04-04 02:03:00,
2013-04-03 16:08:00,59.4,55.2,30.09,WSW,242,0.0,4.0,86,0.00,,,0.00,60.0,meteohub,2013-04-04 02:08:00,
2013-04-03 16:13:00,59.4,55.4,30.09,SW,233,0.0,4.0,87,0.00,,,0.00,76.0,meteohub,2013-04-04 02:13:00,
2013-04-03 16:18:00,59.4,55.8,30.09,NW,313,0.0,3.0,88,0.00,,,0.00,56.0,meteohub,2013-04-04 02:18:00,
2013-04-03 16:23:00,59.4,55.8,30.09,West,277,1.0,3.0,88,0.00,,,0.00,65.0,meteohub,2013-04-04 02:23:00,
2013-04-03 16:28:00,59.2,55.6,30.09,West,277,0.0,4.0,88,0.00,,,0.00,60.0,meteohub,2013-04-04 02:28:00,
2013-04-03 16:33:00,59.2,55.6,30.09,West,276,0.0,4.0,88,0.00,,,0.00,74.0,meteohub,2013-04-04 02:33:00,
2013-04-03 16:38:00,59.2,55.9,30.09,West,276,1.0,4.0,89,0.00,,,0.00,72.0,meteohub,2013-04-04 02:38:00,
2013-04-03 16:43:00,59.2,55.9,30.09,WSW,252,1.0,3.0,89,0.00,,,0.00,83.0,meteohub,2013-04-04 02:43:00,
2013-04-03 16:48:00,59.0,55.4,30.09,WSW,247,3.0,3.0,88,0.00,,,0.00,93.0,meteohub,2013-04-04 02:48:00,
2013-04-03 16:53:00,58.8,55.2,30.09,West,265,0.0,5.0,88,0.00,,,0.00,95.0,meteohub,2013-04-04 02:53:00,
2013-04-03 16:58:00,58.8,55.2,30.09,West,261,1.0,6.0,88,0.00,,,0.00,81.0,meteohub,2013-04-04 02:58:00,
2013-04-03 17:03:00,58.8,55.6,30.09,WSW,245,0.0,6.0,89,0.00,,,0.00,72.0,meteohub,2013-04-04 03:03:00,
2013-04-03 17:08:00,58.8,55.6,30.09,WSW,237,1.0,4.0,89,0.00,,,0.00,70.0,meteohub,2013-04-04 03:08:00,
2013-04-03 17:13:00,58.8,55.6,30.10,WSW,237,0.0,3.0,89,0.00,,,0.00,77.0,meteohub,2013-04-04 03:13:00,
2013-04-03 17:18:00,58.8,55.2,30.10,SW,236,0.0,3.0,88,0.00,,,0.00,67.0,meteohub,2013-04-04 03:18:00,
2013-04-03 17:23:00,59.0,55.8,30.10,WSW,237,1.0,3.0,89,0.00,,,0.00,62.0,meteohub,2013-04-04 03:23:00,
2013-04-03 17:28:00,59.0,55.4,30.10,NW,313,4.0,4.0,88,0.00,,,0.00,70.0,meteohub,2013-04-04 03:28:00,
2013-04-03 17:33:00,58.8,55.6,30.10,WSW,240,1.0,2.0,89,0.00,,,0.00,134.0,meteohub,2013-04-04 03:33:00,
2013-04-03 17:38:00,58.8,55.9,30.10,West,265,1.0,6.0,90,0.00,,,0.00,160.0,meteohub,2013-04-04 03:38:00,
2013-04-03 17:43:00,59.0,56.1,30.10,WNW,288,2.0,6.0,90,0.00,,,0.00,120.0,meteohub,2013-04-04 03:43:00,
2013-04-03 17:48:00,59.0,56.1,30.10,WNW,284,3.0,6.0,90,0.00,,,0.00,63.0,meteohub,2013-04-04 03:48:00,
2013-04-03 17:53:00,59.0,55.8,30.10,WNW,288,2.0,4.0,89,0.00,,,0.00,35.0,meteohub,2013-04-04 03:53:00,
2013-04-03 17:58:00,58.8,55.6,30.10,West,270,1.0,4.0,89,0.00,,,0.00,28.0,meteohub,2013-04-04 03:58:00,
2013-04-03 18:00:00,58.8,55.9,30.11,WSW,237,0.0,4.0,90,0.00,,,0.00,28.0,meteohub,2013-04-04 04:00:00,
2013-04-03 18:05:00,58.6,55.8,30.11,NW,311,0.0,5.0,90,0.00,,,0.00,26.0,meteohub,2013-04-04 04:05:00,
2013-04-03 18:10:00,58.5,55.6,30.11,NW,312,1.0,5.0,90,0.00,,,0.00,19.0,meteohub,2013-04-04 04:10:00,
2013-04-03 18:15:00,58.1,55.2,30.11,WNW,283,0.0,5.0,90,0.00,,,0.00,18.0,meteohub,2013-04-04 04:15:00,
2013-04-03 18:20:00,57.9,55.2,30.11,WNW,302,0.0,5.0,91,0.00,,,0.00,23.0,meteohub,2013-04-04 04:20:00,
2013-04-03 18:25:00,57.9,55.2,30.11,West,271,0.0,5.0,91,0.00,,,0.00,33.0,meteohub,2013-04-04 04:25:00,
2013-04-03 18:30:00,57.7,55.4,30.12,West,279,1.0,5.0,92,0.00,,,0.00,19.0,meteohub,2013-04-04 04:30:00,
2013-04-03 18:36:00,57.7,55.4,30.12,West,268,1.0,5.0,92,0.00,,,0.00,7.0,meteohub,2013-04-04 04:36:00,
2013-04-03 18:41:00,57.6,55.6,30.12,North,0,0.0,5.0,93,0.00,,,0.00,0.0,meteohub,2013-04-04 04:41:00,
2013-04-03 18:46:00,57.4,55.4,30.12,West,277,2.0,5.0,93,0.00,,,0.00,0.0,meteohub,2013-04-04 04:46:00,
2013-04-03 18:51:00,57.0,55.2,30.12,West,277,1.0,4.0,94,0.00,,,0.00,0.0,meteohub,2013-04-04 04:51:00,
2013-04-03 18:56:00,56.8,55.2,30.13,West,277,1.0,4.0,94,0.00,,,0.00,0.0,meteohub,2013-04-04 04:56:00,
2013-04-03 19:01:00,56.8,55.4,30.13,West,279,0.0,4.0,95,0.00,,,0.00,0.0,meteohub,2013-04-04 05:01:00,
2013-04-03 19:06:00,56.7,55.2,30.13,West,278,0.0,2.0,95,0.00,,,0.00,0.0,meteohub,2013-04-04 05:06:00,
2013-04-03 19:11:00,56.7,55.2,30.13,West,277,0.0,2.0,95,0.00,,,0.00,0.0,meteohub,2013-04-04 05:11:00,
2013-04-03 19:16:00,56.5,55.0,30.13,West,277,0.0,0.0,95,0.00,,,0.00,0.0,meteohub,2013-04-04 05:16:00,
2013-04-03 19:21:00,56.3,54.9,30.13,West,277,0.0,0.0,95,0.00,,,0.00,0.0,meteohub,2013-04-04 05:21:00,
2013-04-03 19:26:00,56.1,54.7,30.14,West,278,0.0,0.0,95,0.00,,,0.00,0.0,meteohub,2013-04-04 05:26:00,
2013-04-03 19:31:00,55.9,54.5,30.14,West,277,0.0,0.0,95,0.00,,,0.00,0.0,meteohub,2013-04-04 05:31:00,
2013-04-03 19:36:00,55.8,54.3,30.14,West,277,0.0,0.0,95,0.00,,,0.00,0.0,meteohub,2013-04-04 05:36:00,
2013-04-03 19:41:00,55.6,54.1,30.14,West,277,0.0,0.0,95,0.00,,,0.00,0.0,meteohub,2013-04-04 05:41:00,
2013-04-03 19:46:00,55.2,53.6,30.15,West,277,0.0,1.0,94,0.00,,,0.00,0.0,meteohub,2013-04-04 05:46:00,
2013-04-03 19:51:00,54.9,53.2,30.15,West,277,0.0,1.0,94,0.00,,,0.00,0.0,meteohub,2013-04-04 05:51:00,
2013-04-03 19:56:00,54.3,52.9,30.15,North,11,1.0,1.0,95,0.00,,,0.00,0.0,meteohub,2013-04-04 05:56:00,
2013-04-03 20:01:00,54.0,52.3,30.15,ENE,62,1.0,2.0,94,0.00,,,0.00,0.0,meteohub,2013-04-04 06:01:00,
2013-04-03 20:06:00,53.4,51.4,30.15,East,97,1.0,2.0,93,0.00,,,0.00,0.0,meteohub,2013-04-04 06:06:00,
2013-04-03 20:11:00,53.1,51.1,30.15,East,94,0.0,2.0,93,0.00,,,0.00,0.0,meteohub,2013-04-04 06:11:00,
2013-04-03 20:16:00,52.9,50.9,30.16,East,84,1.0,2.0,93,0.00,,,0.00,0.0,meteohub,2013-04-04 06:16:00,
2013-04-03 20:22:00,52.7,50.4,30.16,East,94,0.0,4.0,92,0.00,,,0.00,0.0,meteohub,2013-04-04 06:22:00,
2013-04-03 20:27:00,52.5,50.0,30.16,East,80,2.0,4.0,91,0.00,,,0.00,0.0,meteohub,2013-04-04 06:27:00,
2013-04-03 20:32:00,52.3,49.3,30.16,ESE,121,1.0,5.0,89,0.00,,,0.00,0.0,meteohub,2013-04-04 06:32:00,
2013-04-03 20:37:00,52.2,49.3,30.16,East,81,0.0,6.0,90,0.00,,,0.00,0.0,meteohub,2013-04-04 06:37:00,
2013-04-03 20:42:00,52.0,48.9,30.17,ESE,111,3.0,6.0,89,0.00,,,0.00,0.0,meteohub,2013-04-04 06:42:00,
2013-04-03 20:47:00,51.8,48.7,30.17,East,91,2.0,5.0,89,0.00,,,0.00,0.0,meteohub,2013-04-04 06:47:00,
2013-04-03 20:52:00,51.6,48.6,30.17,East,88,1.0,3.0,89,0.00,,,0.00,0.0,meteohub,2013-04-04 06:52:00,
2013-04-03 20:57:00,51.4,48.4,30.17,ESE,108,2.0,3.0,89,0.00,,,0.00,0.0,meteohub,2013-04-04 06:57:00,
2013-04-03 21:02:00,51.4,48.4,30.17,East,85,2.0,5.0,89,0.00,,,0.00,0.0,meteohub,2013-04-04 07:02:00,
2013-04-03 21:07:00,51.3,47.8,30.17,ENE,71,2.0,5.0,88,0.00,,,0.00,0.0,meteohub,2013-04-04 07:07:00,
2013-04-03 21:12:00,51.3,47.8,30.18,East,79,3.0,5.0,88,0.00,,,0.00,0.0,meteohub,2013-04-04 07:12:00,
2013-04-03 21:17:00,51.3,47.8,30.18,ESE,102,3.0,5.0,88,0.00,,,0.00,0.0,meteohub,2013-04-04 07:17:00,
2013-04-03 21:22:00,51.4,48.0,30.18,ENE,73,4.0,6.0,88,0.00,,,0.00,0.0,meteohub,2013-04-04 07:22:00,
2013-04-03 21:27:00,51.6,48.2,30.19,ESE,107,2.0,6.0,88,0.00,,,0.00,0.0,meteohub,2013-04-04 07:27:00,
2013-04-03 21:32:00,51.4,48.0,30.19,ESE,102,2.0,6.0,88,0.00,,,0.00,0.0,meteohub,2013-04-04 07:32:00,
2013-04-03 21:37:00,51.8,48.4,30.19,East,79,3.0,5.0,88,0.00,,,0.00,0.0,meteohub,2013-04-04 07:37:00,
2013-04-03 21:42:00,52.2,48.4,30.19,East,86,1.0,5.0,87,0.00,,,0.00,0.0,meteohub,2013-04-04 07:42:00,
2013-04-03 21:47:00,52.3,48.6,30.19,East,82,2.0,5.0,87,0.00,,,0.00,0.0,meteohub,2013-04-04 07:47:00,
2013-04-03 21:52:00,52.3,48.2,30.19,ENE,76,2.0,5.0,86,0.00,,,0.00,0.0,meteohub,2013-04-04 07:52:00,
2013-04-03 21:57:00,52.3,48.2,30.19,East,90,3.0,5.0,86,0.00,,,0.00,0.0,meteohub,2013-04-04 07:57:00,
2013-04-03 22:02:00,52.3,48.2,30.19,East,79,2.0,5.0,86,0.00,,,0.00,0.0,meteohub,2013-04-04 08:02:00,
2013-04-03 22:07:00,52.2,48.4,30.19,ESE,115,3.0,5.0,87,0.00,,,0.00,0.0,meteohub,2013-04-04 08:07:00,
2013-04-03 22:12:00,52.0,48.2,30.19,East,86,2.0,6.0,87,0.00,,,0.00,0.0,meteohub,2013-04-04 08:12:00,
2013-04-03 22:17:00,51.8,48.0,30.19,East,83,2.0,7.0,87,0.00,,,0.00,0.0,meteohub,2013-04-04 08:17:00,
2013-04-03 22:22:00,51.6,47.8,30.19,East,84,3.0,7.0,87,0.00,,,0.00,0.0,meteohub,2013-04-04 08:22:00,
2013-04-03 22:27:00,51.8,48.0,30.19,East,88,2.0,7.0,87,0.00,,,0.00,0.0,meteohub,2013-04-04 08:27:00,
2013-04-03 22:32:00,51.6,47.5,30.19,East,82,2.0,5.0,86,0.00,,,0.00,0.0,meteohub,2013-04-04 08:32:00,
2013-04-03 22:37:00,51.8,47.7,30.18,ENE,71,4.0,6.0,86,0.00,,,0.00,0.0,meteohub,2013-04-04 08:37:00,
2013-04-03 22:42:00,51.4,47.5,30.18,ESE,105,2.0,6.0,86,0.00,,,0.00,0.0,meteohub,2013-04-04 08:42:00,
2013-04-03 22:47:00,51.4,47.5,30.18,East,94,2.0,7.0,86,0.00,,,0.00,0.0,meteohub,2013-04-04 08:47:00,
2013-04-03 22:53:00,51.4,47.5,30.18,East,80,3.0,7.0,86,0.00,,,0.00,0.0,meteohub,2013-04-04 08:53:00,
2013-04-03 22:58:00,51.3,47.3,30.18,East,96,3.0,7.0,86,0.00,,,0.00,0.0,meteohub,2013-04-04 08:58:00,
2013-04-03 23:03:00,51.3,46.9,30.18,East,84,3.0,6.0,85,0.00,,,0.00,0.0,meteohub,2013-04-04 09:03:00,
2013-04-03 23:08:00,51.3,46.9,30.18,ENE,73,2.0,6.0,85,0.00,,,0.00,0.0,meteohub,2013-04-04 09:08:00,
2013-04-03 23:13:00,51.1,46.8,30.18,ENE,69,4.0,6.0,85,0.00,,,0.00,0.0,meteohub,2013-04-04 09:13:00,
2013-04-03 23:18:00,51.1,46.8,30.18,East,81,1.0,7.0,85,0.00,,,0.00,0.0,meteohub,2013-04-04 09:18:00,
2013-04-03 23:23:00,51.3,46.9,30.18,ENE,73,4.0,7.0,85,0.00,,,0.00,0.0,meteohub,2013-04-04 09:23:00,
2013-04-03 23:28:00,50.7,46.4,30.18,East,85,1.0,7.0,85,0.00,,,0.00,0.0,meteohub,2013-04-04 09:28:00,
2013-04-03 23:33:00,50.5,46.6,30.18,East,88,1.0,6.0,86,0.00,,,0.00,0.0,meteohub,2013-04-04 09:33:00,
2013-04-03 23:38:00,50.5,46.2,30.18,ESE,111,2.0,5.0,85,0.00,,,0.00,0.0,meteohub,2013-04-04 09:38:00,
2013-04-03 23:43:00,49.6,45.9,30.18,ENE,74,3.0,5.0,87,0.00,,,0.00,0.0,meteohub,2013-04-04 09:43:00,
2013-04-03 23:48:00,49.5,45.7,30.17,East,81,1.0,5.0,87,0.00,,,0.00,0.0,meteohub,2013-04-04 09:48:00,
2013-04-03 23:53:00,49.3,45.9,30.17,East,84,5.0,5.0,88,0.00,,,0.00,0.0,meteohub,2013-04-04 09:53:00,
2013-04-03 23:58:00,49.6,45.9,30.16,East,84,3.0,5.0,87,0.00,,,0.00,0.0,meteohub,2013-04-04 09:58:00,